Orbital elements of FENGYUN 1C DEB
| Launched | 9 May 1999 |
| Flight ended | – |
| Launch site | Taiyuan Space Center, PRC |
| Owner | People's Republic of China |
| NORAD ID | 30368 |
| Date fetched |
Epoch osculation |
Inc. [°] |
Ecc. | RA asc node [hr] |
Arg Peri. [°] |
Mean anom [°] |
Mean motion [rev/day] |
Abs. mag |
| Date fetched |
Epoch osculation |
Inc. [°] |
Ecc. | RA asc node [hr] |
Arg Peri. [°] |
Mean anom [°] |
Mean motion [rev/day] |
Abs. mag |
| 2026 May 08 17:57 | 2026 May 04 19:21:53 | 99.1905 | 0.01856 | 15.3742 | 290.3903 | 226.2743 | 13.75480 | – |
| 2026 May 07 17:58 | 2026 May 04 19:21:53 | 99.1905 | 0.01856 | 15.3742 | 290.3903 | 226.2743 | 13.75480 | – |
| 2026 May 06 17:57 | 2026 May 04 19:21:53 | 99.1905 | 0.01856 | 15.3742 | 290.3903 | 226.2743 | 13.75480 | – |
| 2026 May 05 17:57 | 2026 May 04 19:21:53 | 99.1905 | 0.01856 | 15.3742 | 290.3903 | 226.2743 | 13.75480 | – |
| 2026 May 04 17:57 | 2026 Apr 30 06:29:10 | 99.1900 | 0.01856 | 15.0825 | 302.4386 | 226.2743 | 13.75480 | – |
| 2026 May 03 17:57 | 2026 Apr 30 06:29:10 | 99.1900 | 0.01856 | 15.0825 | 302.4386 | 226.2743 | 13.75480 | – |
| 2026 May 02 17:57 | 2026 Apr 30 06:29:10 | 99.1900 | 0.01856 | 15.0825 | 302.4386 | 226.2743 | 13.75480 | – |
| 2026 May 01 17:56 | 2026 Apr 30 06:29:10 | 99.1900 | 0.01856 | 15.0825 | 302.4386 | 226.2743 | 13.75480 | – |
| 2026 Apr 30 17:56 | 2026 Apr 30 06:29:10 | 99.1900 | 0.01856 | 15.0825 | 302.4386 | 226.2743 | 13.75480 | – |
| 2026 Apr 29 17:57 | 2026 Apr 24 07:18:01 | 99.1895 | 0.01857 | 14.6988 | 318.2805 | 226.2743 | 13.75480 | – |
| 2026 Apr 28 17:56 | 2026 Apr 24 07:18:01 | 99.1895 | 0.01857 | 14.6988 | 318.2805 | 226.2743 | 13.75480 | – |
| 2026 Apr 27 17:58 | 2026 Apr 24 07:18:01 | 99.1895 | 0.01857 | 14.6988 | 318.2805 | 226.2743 | 13.75480 | – |
| 2026 Apr 26 17:58 | 2026 Apr 24 07:18:01 | 99.1895 | 0.01857 | 14.6988 | 318.2805 | 226.2743 | 13.75480 | – |
| 2026 Apr 25 17:58 | 2026 Apr 24 07:18:01 | 99.1895 | 0.01857 | 14.6988 | 318.2805 | 226.2743 | 13.75480 | – |
| 2026 Apr 24 17:59 | 2026 Apr 24 07:18:01 | 99.1895 | 0.01857 | 14.6988 | 318.2805 | 226.2743 | 13.75480 | – |
| 2026 Apr 23 17:57 | 2026 Apr 19 06:51:47 | 99.1888 | 0.01858 | 14.3761 | 331.6092 | 226.2743 | 13.75480 | – |
| 2026 Apr 22 17:57 | 2026 Apr 19 06:51:47 | 99.1888 | 0.01858 | 14.3761 | 331.6092 | 226.2743 | 13.75480 | – |
| 2026 Apr 21 17:57 | 2026 Apr 19 06:51:47 | 99.1888 | 0.01858 | 14.3761 | 331.6092 | 226.2743 | 13.75480 | – |
| 2026 Apr 20 17:57 | 2026 Apr 19 06:51:47 | 99.1888 | 0.01858 | 14.3761 | 331.6092 | 226.2743 | 13.75480 | – |
| 2026 Apr 19 17:58 | 2026 Apr 19 06:51:47 | 99.1888 | 0.01858 | 14.3761 | 331.6092 | 226.2743 | 13.75480 | – |
| 2026 Apr 18 17:56 | 2026 Apr 13 05:59:21 | 99.1881 | 0.01860 | 13.9880 | 347.6275 | 226.2743 | 13.75480 | – |
| 2026 Apr 16 17:57 | 2026 Apr 13 05:59:21 | 99.1881 | 0.01860 | 13.9880 | 347.6275 | 226.2743 | 13.75480 | – |
| 2026 Apr 14 17:57 | 2026 Apr 13 05:59:21 | 99.1881 | 0.01860 | 13.9880 | 347.6275 | 226.2743 | 13.75480 | – |
| 2026 Apr 13 17:57 | 2026 Apr 13 05:59:21 | 99.1881 | 0.01860 | 13.9880 | 347.6275 | 226.2743 | 13.75480 | – |
| 2026 Apr 12 17:57 | 2026 Apr 08 07:14:04 | 99.1877 | 0.01862 | 13.6699 | 0.7545 | 226.2743 | 13.75480 | – |
| 2026 Apr 11 17:57 | 2026 Apr 08 07:14:04 | 99.1877 | 0.01862 | 13.6699 | 0.7545 | 226.2743 | 13.75480 | – |